sat.trackr.live / text

‹ back to catalog

STARLINK-32081

NORAD 60348 · 2024-136V

PAYLOAD ACTIVE UNKNOWN

§ Identity

Operator
Country
US
Launch date
2024-08-02
Launch site
AFETR
Launch vehicle
Mass (kg)
RCS (m²)

Purposes: comms

External: N2YO · Heavens-Above · Gunter

§ Orbital elements

Epoch: 2026-05-25T04:53:46.845024Z

Period
94.01 min
Inclination
53.1624°
Eccentricity
0.0001437
Mean motion
15.31696525 rev/d
Perigee alt
469.8 km
Apogee alt
471.7 km
Semi-major
6,848.9 km
B*
1.5008e-5
RAAN
79.9498°
Arg perigee
91.8151°
Mean anomaly
268.3015°
Rev number
10,138

§ Raw data

STARLINK-320811 60348U 24136V   26145.20401441  .00000100  00000+0  15008-4 0  99992 60348  53.1624  79.9498 0001437  91.8151 268.3015 15.31696525101381

JSON: /api/v1/satellites/60348 · /tle

For live sub-satellite position, see the globe view (requires WebGL).

§ Visibility from observer

Set your observer location to see the next 7 days of passes ≥ 10°. The values pass through the URL so the page stays shareable.

No JS? Fill the form by hand. The geolocation button needs JavaScript.